Wind_Speed
12 14 15 16 18 19 20 21 22 24 25 27 28 29 30 31 33 34 34 34 32 27 22 21 18 11 4 3 10 10 15 14 8 20 21 10 8 9 9 6 3 16 8 9 19 8 6
12 14 16 17 18 19 20 21 23 24 25 26 28 30 31 33 34 36 37 39 34 29 26 22 13 7 3 5 1 10 18 12 15 24 17 11 8 6 4 5 16 3 11 17 7 7 7
13 14 15 17 18 19 20 22 23 25 26 27 29 30 31 33 34 35 36 36 34 31 20 10 7 11 5 13 11 17 16 8 6 23 7 21 5 7 5 3 9 5 13 7 6 6 10
12 14 15 16 18 19 21 22 23 25 26 28 29 31 32 34 35 36 35 35 33 11 6 3 11 7 6 7 15 17 16 7 6 17 12 11 17 3 3 5 7 4 3 12 10 15 5
12 14 15 17 17 19 21 22 24 25 26 28 29 32 34 35 35 34 36 33 7 7 6 11 4 5 8 15 8 22 11 8 6 6 13 8 4 6 2 2 7 5 14 7 6 5 5
12 14 15 16 18 19 21 22 24 25 26 28 31 33 33 33 31 29 36 8 8 6 5 2 7 3 4 7 13 25 19 9 4 2 2 4 4 3 3 6 16 8 7 4 4 6 9
12 13 15 16 18 20 21 22 23 25 27 29 31 31 30 29 23 25 37 4 6 5 12 2 6 4 6 17 7 19 20 8 2 2 5 4 6 16 15 17 20 16 15 17 4 3 6
12 13 15 16 18 19 21 22 24 25 28 31 31 31 31 29 13 16 29 6 4 5 8 4 5 5 10 6 4 17 25 6 3 4 0 6 15 8 8 10 14 18 23 32 14 9 8
11 13 14 16 18 19 21 22 24 26 28 31 31 29 31 31 4 25 10 12 21 2 3 7 3 2 5 1 3 11 10 7 3 4 7 15 11 4 8 10 14 15 16 19 17 7 8
11 13 15 17 19 19 21 23 25 27 29 30 28 27 30 27 5 22 6 28 17 5 2 6 5 6 11 6 2 6 11 2 4 3 5 8 6 10 10 10 11 15 13 17 17 9 11
11 13 15 17 18 19 21 23 25 27 30 33 27 22 24 19 11 8 20 23 2 4 4 7 6 4 9 7 6 8 17 7 5 8 2 5 7 12 12 7 14 6 10 6 5 13 12
11 13 15 16 18 20 22 24 26 28 31 36 29 18 21 16 15 20 27 8 2 2 5 6 5 8 10 6 6 7 4 6 4 4 3 7 6 1 3 10 13 11 10 13 7 4 8
11 13 14 16 18 20 22 25 27 30 32 35 30 12 15 14 12 30 16 2 4 3 7 8 7 11 9 9 6 7 9 7 4 5 5 7 6 2 3 10 4 12 10 4 6 7 8
11 12 14 15 17 19 21 24 27 29 32 34 30 11 10 21 32 27 5 5 3 3 4 4 6 8 5 12 5 9 13 7 2 3 3 4 4 6 5 3 5 13 3 5 6 4 7
11 11 13 15 16 19 22 24 26 29 32 33 29 12 13 30 28 21 5 5 1 3 4 6 11 4 4 6 4 8 6 3 3 2 2 4 4 11 15 4 2 4 2 4 5 12 5
9 12 13 14 17 19 21 23 26 29 32 30 17 9 10 27 19 10 5 1 2 2 3 2 3 3 5 6 6 7 4 4 6 4 2 3 8 6 7 4 2 3 2 3 2 4 6
9 11 12 14 16 19 21 24 26 29 32 27 7 4 16 24 8 6 3 3 4 4 4 3 3 6 4 4 5 3 6 7 5 7 6 4 3 7 5 2 4 5 3 3 5 3 2
9 10 12 14 17 19 20 22 25 29 31 21 5 3 19 20 4 2 2 5 6 3 2 4 3 4 4 4 4 4 5 3 6 2 5 3 2 5 12 11 4 6 5 5 2 5 5
8 10 12 15 15 16 20 22 23 24 24 8 2 2 11 9 3 4 5 4 3 4 4 3 3 3 3 3 4 5 5 4 11 7 3 4 3 4 8 3 3 7 6 6 6 4 4
8 10 11 13 15 17 19 22 24 25 22 8 2 3 4 4 2 3 6 4 5 4 5 3 5 4 4 4 6 8 16 7 7 18 25 7 2 4 7 12 4 5 16 15 3 2 3
8 8 9 10 13 17 18 20 23 27 18 3 3 0 2 4 3 4 2 3 5 6 3 2 3 4 4 6 13 5 5 16 8 15 5 4 4 5 9 12 21 16 14 17 15 11 3
7 8 8 10 11 14 16 19 22 27 17 6 2 3 2 2 3 3 4 3 4 6 3 10 6 8 7 8 12 20 16 16 9 5 8 5 4 2 5 16 23 18 18 11 15 12 10
7 9 8 8 9 11 13 16 19 20 20 8 8 4 1 4 2 2 4 6 11 17 7 9 11 10 6 6 14 20 16 12 7 5 6 5 5 2 4 11 4 9 15 11 11 15 5
7 7 8 7 8 10 13 15 16 15 13 11 7 4 2 2 5 6 11 13 13 13 9 7 8 10 9 19 16 2 11 14 13 10 9 6 3 3 3 1 4 4 7 9 13 11 11
5 6 7 8 9 10 12 13 13 12 11 9 10 2 1 3 6 9 15 13 8 10 7 5 6 12 13 8 5 5 2 2 5 10 14 10 2 4 3 4 3 2 7 5 6 5 9
4 5 7 9 10 11 12 11 11 10 8 8 9 8 4 3 8 9 5 7 3 6 7 4 7 13 7 3 3 4 4 5 7 13 15 12 12 4 3 4 2 2 11 6 4 1 10
6 6 7 9 10 11 11 11 10 9 8 7 9 10 11 4 4 5 4 3 5 4 4 5 12 8 6 4 4 4 4 2 4 6 9 7 6 6 5 3 2 6 11 4 3 3 8
6 7 8 9 10 11 10 10 9 9 8 5 11 7 9 3 3 8 5 3 4 3 3 5 6 6 4 7 4 3 4 3 4 3 4 2 3 3 3 3 2 9 2 2 3 3 4
6 7 8 9 10 9 10 10 11 12 11 9 9 19 21 11 4 6 13 17 7 5 3 3 2 3 2 3 3 3 4 4 2 2 4 3 3 2 4 3 3 3 3 3 2 3 3
Wind_Direction
17 10 6 3 1 359 355 353 352 350 348 346 344 341 338 336 334 331 329 325 322 320 312 305 297 286 267 253 253 316 341 324 189 181 184 184 173 191 198 209 224 243 230 219 231 205 219
11 7 2 1 358 356 355 353 351 350 348 345 342 341 338 335 332 330 327 323 322 320 313 303 279 225 186 268 267 330 325 342 186 183 192 182 203 194 236 223 207 248 230 245 238 216 220
6 5 3 359 357 355 354 355 352 350 348 344 342 339 336 333 331 329 325 321 320 317 313 317 205 180 229 251 325 332 326 294 240 197 178 213 222 174 187 302 238 268 277 273 227 205 240
3 1 359 359 356 357 355 354 353 351 348 345 343 340 336 334 332 331 326 326 320 342 8 47 140 167 249 280 329 348 353 308 243 216 216 236 226 239 186 307 339 257 217 256 216 202 224
2 1 357 358 359 356 355 354 352 350 349 347 344 341 338 336 335 336 342 333 18 49 77 120 126 137 277 326 343 329 319 303 277 207 225 245 159 208 204 232 291 233 252 229 287 195 177
360 359 359 358 357 357 355 355 353 352 350 348 345 342 342 341 342 345 351 41 59 82 71 10 51 296 344 307 319 319 326 281 260 125 142 155 207 209 172 184 231 212 257 238 222 211 187
357 359 360 360 359 357 355 355 355 353 350 348 346 346 347 346 353 13 11 29 15 352 40 184 277 259 279 315 347 351 354 326 154 124 201 209 224 227 221 231 251 274 277 275 6 265 215
1 358 359 358 359 358 358 356 353 352 349 348 349 351 354 350 13 8 36 61 33 258 318 282 241 258 273 292 307 356 1 29 2 252 66 255 254 259 242 229 242 245 257 265 272 227 241
3 359 359 359 359 359 357 354 352 351 351 351 350 356 355 355 343 6 35 43 350 258 257 293 238 301 338 261 353 343 8 333 275 269 259 259 264 304 308 272 268 263 251 272 265 249 253
3 1 360 359 358 358 357 356 354 351 350 354 353 356 358 1 32 350 343 334 343 155 354 344 349 2 344 314 19 334 356 310 315 354 349 264 42 11 340 307 289 278 244 257 260 245 253
5 4 1 359 358 357 358 357 354 353 351 357 354 356 360 5 323 331 320 327 49 180 339 359 351 341 335 37 279 354 338 341 291 285 161 244 316 340 326 359 323 276 314 249 295 253 259
8 4 1 1 360 358 359 357 356 354 353 352 353 354 360 357 333 331 332 346 121 26 268 336 359 344 353 2 320 325 325 341 297 302 354 307 272 283 106 323 314 322 306 251 231 210 226
10 5 5 7 3 2 0 359 357 354 353 353 352 342 1 357 327 342 342 57 18 108 352 351 342 336 328 340 339 8 335 356 8 1 351 315 308 196 206 328 294 348 356 264 225 216 246
12 10 8 9 6 4 2 1 356 354 355 350 350 341 349 358 350 347 345 36 62 21 355 346 327 326 9 3 346 341 333 339 322 62 295 340 325 3 333 263 268 298 239 279 322 264 250
18 16 13 10 9 6 5 1 356 355 355 348 349 356 3 355 350 346 58 50 289 351 335 313 316 332 319 8 309 351 313 287 294 76 17 302 262 313 296 288 213 335 305 328 257 249 243
23 18 17 11 9 9 6 1 359 356 354 352 347 343 4 350 350 24 63 93 297 3 330 305 299 352 322 329 339 345 302 267 335 12 271 284 297 268 296 339 140 339 297 304 227 299 325
39 29 19 14 13 10 6 3 1 358 356 355 6 22 351 353 13 43 75 292 302 305 5 321 299 299 288 303 309 280 276 301 16 340 353 290 250 293 327 291 351 356 16 2 283 273 268
44 31 23 17 16 13 9 6 4 3 358 359 14 351 356 2 48 35 27 317 303 311 6 293 272 258 240 319 297 262 255 267 6 24 331 272 246 284 274 289 153 59 8 29 10 309 305
47 36 26 21 16 6 2 6 4 5 2 345 6 283 5 22 54 11 332 319 286 317 320 315 284 262 328 298 309 277 278 288 334 353 337 301 240 279 317 38 46 66 25 345 270 255 25
52 40 30 23 10 18 18 14 12 5 2 3 53 3 352 38 47 68 352 306 304 294 286 265 280 299 320 275 235 276 287 304 329 315 302 308 308 152 268 266 332 29 27 13 355 15 64
50 38 22 19 17 21 20 16 13 8 8 10 31 61 147 333 9 343 308 324 303 317 281 300 279 240 316 298 306 260 259 312 315 300 348 11 281 260 283 85 79 62 52 42 49 6 25
50 33 20 15 15 19 19 17 18 15 12 65 74 46 349 281 325 325 349 259 286 309 262 295 246 283 315 286 290 301 318 313 299 347 339 256 274 246 89 90 84 61 37 52 37 14 43
47 32 23 18 19 21 21 16 19 18 25 37 17 328 102 306 27 9 350 328 331 327 303 297 331 327 311 322 305 283 284 285 43 12 330 303 338 265 106 163 203 33 11 62 70 37 25
41 37 37 26 13 10 4 7 9 7 14 38 19 309 2 13 14 13 10 355 347 353 315 334 12 6 314 314 302 22 77 97 81 59 33 331 360 312 104 267 48 111 36 70 87 46 30
38 27 12 3 1 354 358 2 360 357 9 47 17 350 38 101 360 355 348 355 319 342 342 324 356 330 301 306 346 7 215 226 70 54 34 25 331 48 103 57 135 128 24 344 359 46 20
30 20 11 10 6 5 11 8 10 12 21 31 49 21 38 90 2 328 336 351 343 335 329 305 333 324 353 33 18 10 15 343 337 343 17 15 22 77 43 92 128 359 333 313 296 269 9
32 20 17 18 17 23 22 24 23 24 29 54 55 31 88 98 358 357 28 326 326 314 282 310 343 341 29 9 38 30 24 347 25 15 336 351 1 46 17 95 300 337 318 326 90 282 349
34 26 25 27 30 33 36 36 47 34 32 79 55 78 110 99 27 42 33 17 339 8 344 296 355 5 351 27 29 16 42 39 78 17 360 37 6 9 337 66 4 351 337 78 258 304 327
37 38 38 39 44 47 51 70 49 61 74 119 86 93 100 86 157 100 53 43 30 295 259 319 308 341 310 31 34 48 37 24 9 359 5 19 152 224 159 233 251 284 151 268 291 267 281
Height
822 821 818 815 812 809 806 803 800 796 792 788 783 779 774 768 762 756 751 746 742 739 736 733 732 732 733 734 720 706 706 704 705 708 711 716 720 721 723 721 719 713 703 702 700 706 708
823 821 819 815 812 809 806 803 799 796 792 787 783 778 773 767 760 753 746 740 736 733 730 727 727 729 732 736 709 708 706 704 704 705 708 711 711 711 714 716 714 702 702 700 702 703 706
824 821 818 816 813 810 806 802 799 795 792 787 783 777 772 765 759 752 744 735 729 726 722 720 721 726 728 719 708 706 704 703 703 703 705 706 707 709 709 711 706 705 707 704 702 703 700
824 822 819 816 813 810 806 802 799 795 791 786 782 776 770 762 755 748 739 732 725 721 721 721 722 725 721 709 708 706 703 700 701 702 704 704 707 709 708 707 707 706 706 708 687 698 697
824 822 820 816 813 810 806 803 799 795 790 786 781 774 767 760 752 744 734 725 723 723 723 723 724 723 721 710 708 705 704 703 700 700 702 705 707 709 707 712 716 713 694 706 694 686 695
824 823 820 817 814 810 806 803 799 795 790 785 780 773 766 759 751 743 732 725 725 725 726 726 725 728 717 718 712 706 701 700 700 700 702 705 709 713 716 715 693 698 709 694 693 688 690
825 823 820 817 813 810 807 803 799 795 790 785 779 772 766 760 753 746 732 727 734 730 732 740 741 737 728 719 714 709 704 700 699 701 707 705 709 696 705 703 693 690 695 692 693 683 686
825 823 821 817 814 811 807 803 799 794 789 783 777 771 765 760 756 752 747 748 760 761 750 737 736 736 728 725 721 713 706 705 705 709 706 705 701 701 699 699 698 697 695 678 686 686 686
825 823 820 817 815 811 808 804 798 794 789 782 775 770 765 759 756 755 754 758 758 756 758 741 732 729 728 728 723 721 715 712 708 709 705 700 695 695 696 696 697 692 693 687 689 687 683
825 823 820 817 815 811 808 804 799 793 788 782 777 771 765 759 758 758 757 756 755 754 754 738 734 733 729 723 724 724 719 717 711 709 710 708 702 708 711 707 701 693 684 681 683 690 690
825 823 820 818 815 812 808 804 799 794 788 781 776 773 769 764 766 762 760 753 752 755 749 743 742 738 737 736 737 725 723 720 716 714 713 704 704 708 710 711 709 691 690 691 685 679 687
825 823 821 818 815 811 807 803 799 794 787 782 777 774 771 767 764 761 753 750 753 751 767 750 747 748 747 743 739 734 728 726 719 718 712 712 705 706 713 716 705 706 695 683 681 678 670
825 824 821 818 815 812 808 803 798 793 788 781 776 773 771 768 767 757 751 750 758 760 757 761 761 759 757 752 744 744 739 739 738 741 733 724 714 710 709 707 693 702 702 669 662 661 644
825 824 822 819 816 813 809 804 800 794 787 781 775 772 771 769 762 755 752 757 760 768 774 769 765 762 759 756 751 751 745 747 735 745 747 747 727 718 711 714 717 704 702 693 676 644 636
826 824 822 820 817 814 810 806 801 795 789 781 774 772 772 767 761 756 761 782 784 782 781 778 771 769 767 763 765 763 760 754 740 740 751 741 734 718 710 710 708 711 705 699 702 674 662
826 824 822 821 818 814 811 808 802 796 790 782 777 775 774 768 764 760 777 780 785 780 782 780 784 774 781 776 775 774 762 746 745 744 743 745 746 721 713 708 702 707 704 697 688 681 676
826 825 824 822 819 815 812 808 802 796 789 783 779 781 776 770 768 778 799 795 788 782 783 785 784 781 781 782 776 778 765 749 750 746 747 744 749 730 719 711 718 713 719 718 710 708 683
826 826 825 823 819 817 814 809 804 798 791 785 788 790 780 771 789 805 801 798 790 784 783 784 783 782 781 778 783 774 767 754 751 750 753 750 761 746 725 713 713 722 743 734 726 712 708
827 826 825 824 821 819 814 810 806 801 797 794 798 797 784 777 802 807 805 800 794 789 786 784 783 780 777 778 780 772 762 749 751 753 755 751 747 743 723 719 718 743 763 768 753 735 733
827 826 826 824 822 819 814 811 808 803 799 796 801 803 796 797 807 809 808 804 796 787 786 786 783 780 780 779 776 778 760 752 750 751 740 741 747 762 752 736 735 765 779 774 764 750 775
827 827 826 825 823 820 816 813 810 804 799 799 806 815 812 815 809 812 810 807 802 793 787 785 783 778 781 781 772 770 759 756 751 745 743 747 752 742 734 767 781 788 799 799 800 795 774
828 827 827 826 824 821 818 816 812 806 803 803 813 816 814 818 813 811 811 813 800 794 792 783 784 777 779 781 777 769 770 763 763 754 753 748 745 733 773 788 796 815 811 815 823 826 818
828 828 827 826 824 822 820 817 813 812 810 809 810 810 810 815 814 817 816 808 801 797 787 785 782 780 783 779 781 771 769 768 778 779 773 752 745 733 764 781 772 811 838 832 844 849 843
828 828 827 825 824 822 821 818 816 815 813 813 815 814 812 823 821 819 821 819 810 803 800 790 788 792 781 779 771 768 772 777 782 789 789 782 778 749 770 774 801 844 849 846 851 855 856
828 828 827 826 824 823 820 818 817 816 814 813 814 814 816 830 836 828 827 827 816 812 807 798 796 798 789 781 778 786 767 763 786 790 794 799 805 785 782 826 843 838 857 860 858 859 860
828 827 826 824 823 821 818 817 816 815 814 813 815 815 815 826 850 845 835 836 840 831 821 804 799 795 790 795 789 795 784 792 793 799 793 804 805 799 808 822 830 859 861 860 859 859 861
827 826 825 823 821 819 818 818 816 815 815 814 816 815 820 844 852 849 852 850 844 842 840 823 815 803 800 816 813 819 811 830 854 860 848 837 843 845 851 864 871 866 862 856 859 870 865
826 825 823 822 820 819 819 818 817 816 816 815 819 817 820 846 856 854 852 855 851 852 851 834 826 819 820 821 824 827 837 852 862 872 880 891 893 872 867 855 852 868 861 862 875 870 867
825 824 823 821 819 820 820 819 818 817 815 816 820 824 825 835 855 856 855 855 854 851 849 844 838 844 836 838 841 845 852 860 882 891 885 887 900 902 891 881 882 878 878 874 872 871 869